EN

Hourly Weather Chociczka

Today, 8 March, Monday

Time Temperature Precipitation Wind Pressure Humidity
00:00 -2°C° 0.4 mm 3 mps 752 mmHg 89%
01:00 -2°C° 0 mm 2 mps 752 mmHg 91%
02:00 -2°C° 0 mm 2 mps 752 mmHg 89%
03:00 -3°C° 0 mm 2 mps 752 mmHg 88%
04:00 -4°C° 0 mm 2 mps 752 mmHg 87%
05:00 -4°C° 0 mm 2 mps 753 mmHg 82%
06:00 -4°C° 0 mm 2 mps 753 mmHg 78%
07:00 -4°C° 0 mm 2 mps 754 mmHg 74%
08:00 -2°C° 0 mm 3 mps 754 mmHg 68%
09:00 -1°C° 0 mm 3 mps 755 mmHg 61%
10:00 -1°C° 0 mm 4 mps 755 mmHg 55%
11:00 0°C° 0 mm 4 mps 755 mmHg 53%
12:00 0°C° 0 mm 4 mps 756 mmHg 50%
13:00 +1°C° 0 mm 4 mps 756 mmHg 48%
14:00 +1°C° 0 mm 4 mps 756 mmHg 49%
15:00 +2°C° 0 mm 3 mps 756 mmHg 50%
16:00 +1°C° 0 mm 3 mps 756 mmHg 51%
17:00 0°C° 0 mm 3 mps 756 mmHg 56%
18:00 -1°C° 0 mm 2 mps 756 mmHg 61%
19:00 -2°C° 0 mm 2 mps 756 mmHg 66%
20:00 -2°C° 0 mm 2 mps 757 mmHg 68%
21:00 -3°C° 0 mm 2 mps 757 mmHg 70%
22:00 -3°C° 0 mm 2 mps 757 mmHg 72%
23:00 -1°C° 0 mm 1 mps 757 mmHg 74%

Tomorrow, 9 March, Tuesday

Time Temperature Precipitation Wind Pressure Humidity
00:00 -1°C° 0 mm 1 mps 757 mmHg 76%
01:00 -1°C° 0 mm 1 mps 757 mmHg 77%
02:00 -1°C° 0 mm 1 mps 757 mmHg 78%
03:00 -1°C° 0 mm 1 mps 757 mmHg 78%
04:00 -1°C° 0 mm 1 mps 756 mmHg 78%
05:00 -1°C° 0 mm 1 mps 756 mmHg 77%
06:00 -1°C° 0 mm 1 mps 757 mmHg 76%
07:00 -3°C° 0 mm 2 mps 757 mmHg 76%
08:00 -2°C° 0 mm 2 mps 757 mmHg 69%
09:00 -1°C° 0 mm 2 mps 757 mmHg 63%
10:00 +1°C° 0 mm 2 mps 757 mmHg 57%
11:00 +2°C° 0 mm 2 mps 756 mmHg 52%
12:00 +2°C° 0 mm 2 mps 756 mmHg 48%
13:00 +3°C° 0 mm 2 mps 756 mmHg 43%
14:00 +3°C° 0 mm 2 mps 756 mmHg 44%
15:00 +3°C° 0 mm 2 mps 755 mmHg 44%
16:00 +3°C° 0 mm 2 mps 755 mmHg 45%
17:00 +1°C° 0 mm 2 mps 755 mmHg 51%
18:00 -1°C° 0 mm 2 mps 755 mmHg 56%
19:00 -2°C° 0 mm 2 mps 755 mmHg 62%
20:00 -2°C° 0 mm 2 mps 756 mmHg 63%
21:00 -3°C° 0 mm 2 mps 756 mmHg 64%
22:00 -3°C° 0 mm 2 mps 756 mmHg 66%
23:00 -3°C° 0 mm 2 mps 756 mmHg 66%

Day after tomorrow, 10 March, Wednesday

Time Temperature Precipitation Wind Pressure Humidity
00:00 -3°C° 0 mm 2 mps 756 mmHg 66%
01:00 -3°C° 0 mm 2 mps 755 mmHg 66%
02:00 -1°C° 0 mm 1 mps 755 mmHg 66%
03:00 -1°C° 0 mm 1 mps 755 mmHg 65%
04:00 -1°C° 0 mm 1 mps 755 mmHg 65%
05:00 -1°C° 0 mm 1 mps 755 mmHg 64%
06:00 -1°C° 0 mm 1 mps 756 mmHg 64%
07:00 -1°C° 0 mm 1 mps 756 mmHg 63%
08:00 +1°C° 0 mm 1 mps 756 mmHg 58%
09:00 +2°C° 0 mm 1 mps 756 mmHg 52%
10:00 +3°C° 0 mm 1 mps 756 mmHg 47%
11:00 +3°C° 0 mm 2 mps 756 mmHg 44%
12:00 +3°C° 0 mm 2 mps 756 mmHg 42%
13:00 +4°C° 0 mm 2 mps 756 mmHg 40%
14:00 +4°C° 0 mm 2 mps 756 mmHg 41%
15:00 +4°C° 0 mm 2 mps 756 mmHg 42%
16:00 +4°C° 0 mm 2 mps 756 mmHg 42%
17:00 +2°C° 0 mm 2 mps 756 mmHg 47%
18:00 +1°C° 0 mm 2 mps 756 mmHg 52%
19:00 -2°C° 0 mm 3 mps 756 mmHg 57%
20:00 -2°C° 0 mm 3 mps 756 mmHg 57%
21:00 -2°C° 0 mm 3 mps 756 mmHg 58%
22:00 -2°C° 0 mm 3 mps 756 mmHg 58%
23:00 -3°C° 0 mm 4 mps 756 mmHg 58%

11 March, Thursday

Time Temperature Precipitation Wind Pressure Humidity
00:00 -3°C° 0 mm 4 mps 755 mmHg 58%
01:00 -3°C° 0 mm 4 mps 755 mmHg 58%
02:00 -4°C° 0 mm 5 mps 754 mmHg 58%
03:00 -4°C° 0 mm 5 mps 753 mmHg 59%
04:00 -2°C° 0 mm 5 mps 752 mmHg 59%
05:00 -3°C° 0 mm 6 mps 752 mmHg 60%
06:00 -3°C° 0 mm 6 mps 751 mmHg 62%
07:00 -2°C° 0 mm 7 mps 751 mmHg 63%
08:00 -1°C° 0.1 mm 7 mps 750 mmHg 66%
09:00 -1°C° 0.1 mm 7 mps 749 mmHg 69%
10:00 0°C° 0.1 mm 8 mps 749 mmHg 72%
11:00 +1°C° 0.3 mm 8 mps 748 mmHg 77%
12:00 +1°C° 0.3 mm 9 mps 747 mmHg 82%
13:00 +1°C° 0.3 mm 9 mps 746 mmHg 87%
14:00 +1°C° 0.7 mm 8 mps 745 mmHg 88%
15:00 +1°C° 0.7 mm 8 mps 744 mmHg 89%
16:00 +2°C° 0.7 mm 7 mps 743 mmHg 90%
17:00 +3°C° 0.5 mm 7 mps 743 mmHg 88%
18:00 +3°C° 0.5 mm 7 mps 742 mmHg 86%
19:00 +4°C° 0.5 mm 7 mps 742 mmHg 83%
20:00 +4°C° 0.5 mm 6 mps 742 mmHg 86%
21:00 +5°C° 0.5 mm 5 mps 742 mmHg 89%
22:00 +5°C° 0.5 mm 5 mps 742 mmHg 91%
23:00 +5°C° 0 mm 5 mps 742 mmHg 90%

12 March, Friday

Time Temperature Precipitation Wind Pressure Humidity
00:00 +4°C° 0 mm 6 mps 742 mmHg 88%
01:00 +3°C° 0 mm 6 mps 743 mmHg 86%
02:00 +3°C° 0.1 mm 6 mps 743 mmHg 86%
03:00 +3°C° 0.1 mm 7 mps 743 mmHg 87%
04:00 +3°C° 0.1 mm 7 mps 743 mmHg 87%
05:00 +3°C° 0 mm 7 mps 744 mmHg 86%
06:00 +2°C° 0 mm 7 mps 744 mmHg 84%
07:00 +2°C° 0 mm 7 mps 745 mmHg 83%
08:00 +2°C° 0 mm 8 mps 745 mmHg 79%
09:00 +2°C° 0 mm 8 mps 746 mmHg 74%
10:00 +3°C° 0 mm 9 mps 746 mmHg 70%
11:00 +5°C° 0.1 mm 9 mps 746 mmHg 67%
12:00 +5°C° 0.1 mm 8 mps 746 mmHg 63%
13:00 +6°C° 0.1 mm 8 mps 747 mmHg 60%
14:00 +6°C° 0.1 mm 8 mps 747 mmHg 60%
15:00 +6°C° 0.1 mm 7 mps 747 mmHg 60%
16:00 +6°C° 0.1 mm 7 mps 747 mmHg 60%
17:00 +5°C° 0 mm 6 mps 747 mmHg 64%
18:00 +5°C° 0 mm 5 mps 747 mmHg 69%
19:00 +4°C° 0 mm 4 mps 747 mmHg 73%
20:00 +4°C° 0 mm 4 mps 747 mmHg 75%
21:00 +3°C° 0 mm 4 mps 747 mmHg 76%
22:00 +3°C° 0 mm 4 mps 747 mmHg 78%
23:00 +3°C° 0 mm 4 mps 747 mmHg 78%

13 March, Saturday

Time Temperature Precipitation Wind Pressure Humidity
00:00 +2°C° 0 mm 5 mps 746 mmHg 78%
01:00 +1°C° 0 mm 5 mps 746 mmHg 78%
02:00 +1°C° 0 mm 5 mps 746 mmHg 79%
03:00 +1°C° 0 mm 5 mps 745 mmHg 79%
04:00 +1°C° 0 mm 5 mps 745 mmHg 79%
05:00 +1°C° 0 mm 5 mps 745 mmHg 80%
06:00 +2°C° 0 mm 6 mps 745 mmHg 81%
07:00 +2°C° 0 mm 6 mps 744 mmHg 81%
08:00 +3°C° 0 mm 6 mps 745 mmHg 80%
09:00 +4°C° 0 mm 6 mps 745 mmHg 80%
10:00 +4°C° 0 mm 6 mps 745 mmHg 79%
11:00 +5°C° 0.1 mm 6 mps 745 mmHg 75%
12:00 +5°C° 0.1 mm 6 mps 745 mmHg 72%
13:00 +7°C° 0.1 mm 6 mps 745 mmHg 68%
14:00 +7°C° 0.2 mm 6 mps 745 mmHg 68%
15:00 +7°C° 0.2 mm 6 mps 745 mmHg 68%
16:00 +5°C° 0.2 mm 6 mps 745 mmHg 68%
17:00 +5°C° 0.2 mm 5 mps 745 mmHg 72%
18:00 +5°C° 0.2 mm 5 mps 745 mmHg 76%
19:00 +4°C° 0.2 mm 4 mps 745 mmHg 79%
20:00 +3°C° 0 mm 4 mps 746 mmHg 80%
21:00 +3°C° 0 mm 4 mps 746 mmHg 82%
22:00 +1°C° 0 mm 4 mps 746 mmHg 83%
23:00 +1°C° 0 mm 4 mps 746 mmHg 84%
Show more

We Need Your Consent

Meteoprog and our Service Providers may store and access personal data such as cookies, device identifiers or other similar technologies on your device and process such data to personalise content and ads, as well as provide social media features and to analyse the traffic.

  • Store and/or access information on your device

    Cookies, device identifiers or other information can be stored or accessed on your device for the purposes indicated above.

  • Personalised ads and content, ad and content measurement, audience insights, and products development

    Ads and content can be personalised based on a profile. More data can be added to better personalise ads and content. Ad and content performance can be measured. Insights about the audience who saw the ads and content can be derived. Such data can be used to develop or improve user’s experience, systems and software.

By clicking ‘I Agree’ you will allow the use of indicated cookies, device identifiers, web beacons or other similar technologies. Your settings can be changed in the browser on your device.

For certain purposes, legitimate interests may be relied on, rather than consent. You can read more about this in our Privacy and Cookie Policy.